User: anonymous   Login
Location: Unspecified
(0.0000°N, 0.0000°E)
Time: 07:55:59
(UTC+00:00)
Language:

Oscar 11 - Orbit

View from above orbital plane
View from above orbital plane
View from above satellite
View from above satellite

Ground track
Ground track

The orbit data is extracted from the following two-line orbital elements,

1 14781U 84021B   18347.67558278 +.00000061 +00000-0 +13598-4 0  9994
2 14781 097.6304 016.0427 0007803 204.9177 155.1661 14.83050549850041
Epoch (UTC): 13 December 2018 16:12:50
Eccentricity: 0.0007803
inclination: 97.6304°
perigee height: 614 km
apogee height: 625 km
right ascension of ascending node: 16.0427°
argument of perigee: 204.9177°
revolutions per day: 14.83050549
mean anomaly at epoch: 155.1661°
orbit number at epoch: 85004

The dashed part of the orbit path shows where the satellite is in the earth's shadow,  

DLR